CZ-6A DEB, 54302

Orbit data source: Space-Track

CZ-6A DEB, 54302 is space debris in SSO originally from a launch on Fri, 11 Nov 2022 UTC launched from the Taiyaun Space Center, China (TSC). Debris objects in space refer to the collection of defunct objects orbiting the Earth. Examples of debris include non-operational satellites, rocket bodies, and fragments generated from explosions, collisions, or faulty payload assembly.

Loading next visibility...
Identifier
54302, 2022-151AV
Orbit
SSO
Country
Flag of CNCN / PRC
Related business
Manufacturer
SAST
Mission
Spacecraft
Bus & Motor
Unknown
Mass
Unknown
Launch date (UTC)
2022-11-11 (4 years ago)
Launch vehicle
Unknown
Launch site
Taiyaun Space Center, China (TSC)
Object type
Payload
Rocket body
Debris
Shape & HBR
Unknown shape, 0.1 m
Radar Cross Section
Small (<0.1 m²)

Expand to show TLE details & history
Last TLE update: 13 hours ago

TLE from 13 hours ago
0 CZ-6A DEB
1 54302U 22151AV  26263.29712668  .00003511  00000-0  54788-3 0  9990
2 54302  98.8887  30.1866 0094633 265.3908  93.6482 14.70665038204677
Epoch: 2026-09-20T07:07Z
TLE epoch observation values (Epoch: 2026-09-20T07:07:51.745Z)
Latitude
-0°
Longitude
-75.97234°
Altitude
666.789 km
Speed
7.521 km/s
True Right ascension
02h 00m 44s
True Declination
0° 00' 00"
Sunlit
Object was in full shadow at epoch
Visualization orbit readout
Latitude
Unknown
Longitude
Unknown
Altitude
Unknown
Speed
Unknown
Apparent Right ascension
Unknown
Apparent Declination
Unknown
Sunlit
N/A
Visualization observer readout
Local Sidereal Time
12:54:48
Azimuth
Unknown
Elevation
Unknown
Doppler factor
Unknown
Orbital elements
Apogee altitude
722.612 km
Perigee altitude
589.479 km
Semi-major axis
7,034.183 km
Eccentricity
0.00946
Inclination
98.8887°
RAAN
30.1866°
Arg. of periapsis
265.3908°
True anomaly
94.72954°
Mean anomaly
93.6482°
Eccentric anomaly
94.18896°
Mean motion
3.67894 °/min
Orbital period
97.85 mins
BSTAR
0.00054788
Loading maneuver chart data...
Computing Atmospheric mass density...
Loading historical data...
Loading historical data...
Loading historical data...
Loading historical data...
Loading historical data...
Loading historical data...
Loading historical data...

Documentation

Showing up to 5 results
|